Hourly Data Report for October 25, 2015

All times are specified in Local Standard Time (LST). Add 1 hour to adjust for Daylight Saving Time where and when it is observed.

PANGNIRTUNG
NUNAVUT

66°08'36.300" N
65°42'40.500" W
22.60 m
2403049
71826
WXP

Download Data

Hourly Data (October 2015)
Hourly Data Report for October 25, 2015
Temp Definition
°C
Dew Point Temp Definition
°C
Rel Hum Definition
%
Wind Dir Definition
10's deg

Wind Spd Definition
km/h
Visibility Definition
km
Stn Press Definition
kPa
Hmdx Definition


Wind Chill Definition


Weather Definition


TIME
00:00 -1.1 -4.4 78 14 35   98.14   -8 LegendNANA
01:00 -0.8 -4.3 77 14 23   98.10   -7 LegendNANA
02:00 -1.7 -4.0 84 30 6   98.08   -4 LegendNANA
03:00 -1.8 -3.8 86 27 3   98.04   -3 LegendNANA
04:00 -2.7 -3.5 95 3 13   98.01   -7 LegendNANA
05:00 -2.6 -3.4 95 7 9   98.00   -6 LegendNANA
06:00 -2.5 -3.1 95 11 7   97.98   -5 LegendNANA
07:00 -2.6 -3.1 96 10 8   97.98   -6 LegendNANA
08:00 -2.6 -3.1 96 1 1   98.00   -3 LegendNANA
09:00 -4.3 -6.7 83 21 24   98.06   -11 LegendNANA
10:00 -5.9 -7.4 89 24 31   98.10   -14 LegendNANA
11:00 -5.9 -8.1 84 23 24   98.16   -13 LegendNANA
12:00 -7.0 -8.5 89 24 30   98.23   -16 LegendNANA
13:00 -7.8 -10.1 84 24 33   98.33   -17 LegendNANA
14:00 -7.8 -10.5 81 23 23   98.40   -16 LegendNANA
15:00 -7.6 -11.5 73 28 16   98.44   -14 LegendNANA
16:00 -7.9 -11.5 76 33 20   98.50   -15 LegendNANA
17:00 -8.4 -12.3 73 32 19   98.53   -16 LegendNANA
18:00 -8.6 -12.6 73 32 20   98.59   -16 LegendNANA
19:00 -8.7 -13.0 71 32 20   98.60   -16 LegendNANA
20:00 -9.0 -13.2 72 32 17   98.65   -16 LegendNANA
21:00 -9.0 -14.7 63 29 12   98.65   -15 LegendNANA
22:00 -8.7 -15.4 58 30 13   98.64   -15 LegendNANA
23:00 -9.1 -15.4 60 28 14   98.65   -15 LegendNANA

Notes on Data Quality.

Legend

  • E = Estimated
  • M = Missing
  • NA = Not Available
  • ‡ = Partner data that is not subject to review by the National Climate Archives
Date modified: